OBEE

Last updated on Fri May 26 2017 00:15:03 GMT+0000 (Coordinated Universal Time)

1 42708U 98067LR 17144.89244817 .00011696 00000-0 17779-3 0 9998 2 42708 51.6408 154.3620 0001311 163.6777 267.0696 15.55024662 1172
UTC large
Height (km)
Speed (km/s)
/
Latitude / Longitude
Inclination (degrees)
Orbital Period (minutes)
Azimuth
Elevation
Range (km)
Doppler Factor

Next 0 passes for location: London (51.5072 / 0.1276)

Sorry there are no passes over London.